Vorticity
8 7 9 8 5 6 4 3 3 5 5 2 6 8 7 5 -3 1 2 7 1 2 4 4 4 6 8 4 3 2 2 2 2 3 5 8 8 7 7 7 4 3 5 3 3 4 5 4 5
5 6 7 9 10 8 5 6 4 3 3 4 5 6 7 6 6 3 3 5 6 5 4 7 7 5 4 5 4 4 5 4 3 4 5 6 7 8 7 6 5 3 6 6 7 5 4 3 3
2 3 4 5 7 12 12 8 5 5 4 3 5 6 4 3 7 7 5 8 6 7 4 5 8 8 5 6 7 7 5 4 4 5 6 6 4 5 7 7 6 6 4 2 3 6 9 10 11
3 4 4 2 6 7 7 10 6 4 5 4 3 7 5 6 5 6 7 5 15 5 8 2 2 6 5 6 4 4 5 5 5 6 6 5 6 6 4 5 7 7 7 7 7 6 6 5 3
2 5 4 4 5 7 5 7 14 10 4 5 4 4 3 4 4 5 8 9 -1 3 4 0 6 4 5 8 7 6 6 7 6 6 6 6 5 5 6 7 6 6 6 8 10 10 10 9 9
3 4 4 5 5 9 6 4 4 12 10 7 6 4 3 4 3 6 6 7 10 2 3 5 6 7 7 6 9 7 7 8 7 6 5 5 5 5 5 6 6 5 6 7 7 6 7 7 5
2 3 5 5 6 6 10 4 4 7 12 11 3 6 6 0 5 4 3 5 6 7 5 5 6 7 6 5 7 8 7 7 8 7 7 6 5 4 4 5 6 6 8 7 6 4 -0 -0 -0
5 5 4 4 8 13 10 7 4 4 11 7 18 6 8 6 2 3 4 3 4 5 5 3 3 6 7 8 6 6 7 6 7 7 8 7 5 5 5 6 6 6 6 4 1 -0 1 2 2
8 4 5 7 11 12 5 12 4 5 3 5 13 6 8 11 7 4 4 4 4 3 4 6 3 6 5 8 6 6 6 4 6 7 7 8 7 6 4 5 6 6 4 2 1 2 -0 1 2
6 8 5 8 10 8 5 12 1 7 4 3 3 7 15 10 0 1 3 4 4 4 3 6 8 1 5 8 7 5 3 4 4 7 9 8 8 8 6 5 4 6 4 4 3 4 3 1 0
1 11 8 5 7 8 5 14 1 7 3 5 4 2 2 4 12 17 1 4 4 5 4 3 5 7 4 5 5 3 4 5 3 2 4 8 8 6 6 4 4 3 5 6 4 4 2 2 2
3 10 6 6 7 6 7 8 8 5 9 5 7 4 8 5 6 7 11 16 3 2 4 5 5 7 8 5 6 5 3 8 7 1 3 4 7 8 6 6 5 5 5 4 4 5 5 1 7
7 7 5 10 10 9 8 7 10 7 11 3 6 11 11 10 10 11 12 7 13 10 6 6 3 3 6 8 7 5 9 -5 4 4 5 4 5 8 11 8 6 7 5 6 5 5 4 6 5
6 6 7 8 10 13 11 10 6 15 11 8 4 4 8 10 8 7 10 13 7 12 10 6 7 5 5 8 9 8 6 6 5 5 3 7 5 5 9 12 10 7 8 9 7 6 5 4 4
8 7 7 9 9 8 10 12 2 9 4 10 8 6 5 10 5 4 9 10 13 6 11 10 2 5 5 9 7 9 6 4 6 5 4 6 6 5 8 10 9 7 7 7 8 8 5 3 4
11 7 8 5 7 8 -1 10 6 11 7 10 8 13 8 9 7 6 9 9 7 12 4 9 11 5 4 5 7 7 8 8 8 7 5 7 8 5 6 8 6 5 7 6 6 7 7 5 5
9 7 7 7 6 7 2 4 4 9 4 10 9 13 17 13 7 4 6 2 7 6 11 5 11 8 4 4 5 6 6 7 7 8 4 7 10 9 5 7 6 7 6 6 5 7 5 5 5
10 7 6 6 5 5 4 2 3 2 2 1 5 7 11 14 18 6 7 4 2 5 6 4 9 10 7 4 3 4 6 7 6 7 6 3 8 13 7 6 7 5 6 5 5 5 6 5 5
8 9 7 7 8 7 6 6 4 5 5 3 2 -0 1 4 18 16 13 6 -1 2 6 6 5 8 8 7 4 3 3 4 8 6 8 11 5 13 10 7 7 7 8 5 5 6 4 3 3
12 14 13 11 12 14 9 8 7 7 5 4 6 6 5 6 6 8 12 18 8 5 3 8 7 8 7 12 7 3 3 4 4 3 3 5 12 12 11 7 6 7 9 7 4 4 4 3 8
10 9 6 6 8 5 8 7 5 3 4 3 7 5 -1 -2 -1 1 2 6 14 15 2 -2 6 6 8 8 12 9 5 5 4 2 4 5 9 6 13 5 6 6 6 9 8 5 4 3 4
3 3 1 0 1 1 -1 20 -0 4 -2 -5 -5 2 2 1 2 -1 1 6 7 14 15 8 3 7 4 7 10 8 12 4 3 6 6 10 10 9 8 8 7 7 6 6 8 9 7 7 7
2 1 4 4 4 8 -5 8 8 4 1 -1 1 0 4 4 6 5 6 8 11 6 13 11 9 5 7 6 11 6 6 12 10 5 2 8 10 11 11 5 8 8 7 7 6 6 7 7 6
4 3 2 4 5 9 1 8 12 4 14 11 10 6 3 2 6 6 3 3 -1 8 9 16 13 7 5 6 7 5 9 6 8 5 3 4 2 7 10 10 6 5 6 7 7 6 6 6 6
4 6 7 10 8 9 18 15 17 19 30 46 40 33 26 22 14 9 6 7 9 5 9 18 10 15 6 5 8 7 6 6 5 6 7 4 8 7 7 9 9 9 8 9 9 7 7 8 8
8 8 15 7 14 9 4 15 5 7 13 -8 13 9 13 47 29 15 18 10 10 14 7 14 13 8 11 7 11 7 5 7 5 5 7 6 8 8 7 6 7 8 8 8 7 8 9 9 9
8 11 3 3 3 1 7 8 6 14 30 32 24 -9 6 5 -4 66 10 19 13 10 10 11 18 7 6 6 10 9 6 7 7 5 5 5 8 5 8 7 6 7 7 9 9 9 8 9 7
5 6 5 4 7 7 10 18 30 29 29 25 25 17 37 25 6 -4 42 12 11 16 11 11 17 8 8 7 7 9 7 7 7 4 4 5 7 7 8 7 7 8 8 6 7 9 10 7 6
2 2 9 7 10 2 3 14 11 20 24 38 17 7 26 25 22 15 44 27 8 14 11 12 14 12 11 10 8 7 6 6 5 4 4 5 6 8 7 8 7 7 6 7 9 11 6 6 8
3 12 9 5 9 2 4 19 30 9 26 22 10 11 18 6 10 3 33 33 11 13 9 12 12 14 14 10 7 6 6 8 7 5 5 5 8 6 6 8 8 7 6 10 12 6 4 9 7
Height
5808 5810 5811 5813 5817 5818 5820 5822 5823 5826 5826 5826 5829 5830 5831 5832 5831 5835 5833 5834 5835 5835 5835 5836 5838 5840 5840 5840 5841 5842 5843 5843 5843 5843 5843 5844 5843 5842 5842 5842 5841 5841 5841 5841 5841 5841 5842 5842 5843
5803 5805 5806 5808 5811 5813 5818 5817 5819 5820 5822 5824 5825 5826 5828 5827 5828 5829 5830 5831 5832 5832 5832 5833 5833 5834 5836 5837 5838 5838 5839 5839 5839 5840 5840 5840 5841 5840 5839 5839 5839 5839 5839 5839 5839 5839 5839 5839 5840
5799 5800 5801 5802 5806 5810 5813 5809 5813 5816 5817 5820 5822 5823 5822 5822 5825 5826 5827 5828 5829 5829 5829 5830 5831 5831 5832 5832 5834 5834 5835 5835 5836 5836 5836 5836 5837 5837 5838 5837 5837 5837 5836 5836 5836 5837 5837 5837 5837
5795 5796 5797 5798 5803 5807 5806 5804 5806 5811 5813 5815 5817 5818 5818 5820 5821 5822 5823 5824 5825 5826 5826 5827 5827 5828 5828 5829 5829 5830 5831 5832 5832 5832 5833 5833 5833 5833 5834 5834 5834 5834 5834 5834 5833 5834 5835 5834 5834
5790 5790 5791 5794 5800 5802 5801 5800 5803 5805 5807 5811 5813 5811 5812 5815 5818 5820 5820 5821 5822 5822 5823 5823 5824 5825 5825 5825 5826 5827 5827 5828 5828 5829 5829 5829 5830 5831 5831 5831 5831 5831 5831 5832 5831 5832 5831 5831 5831
5783 5786 5786 5789 5795 5796 5795 5796 5797 5800 5801 5805 5809 5808 5808 5813 5813 5815 5817 5817 5818 5818 5819 5820 5820 5820 5821 5822 5823 5823 5824 5824 5825 5825 5825 5826 5826 5827 5828 5828 5828 5828 5828 5828 5829 5829 5828 5828 5828
5778 5781 5782 5784 5788 5791 5792 5790 5793 5795 5796 5800 5801 5807 5801 5806 5808 5810 5811 5812 5813 5813 5814 5815 5815 5816 5816 5817 5818 5819 5820 5820 5821 5821 5822 5822 5822 5823 5824 5824 5825 5825 5825 5825 5825 5825 5825 5825 5824
5773 5773 5775 5778 5783 5787 5786 5785 5787 5789 5792 5790 5798 5801 5797 5804 5804 5805 5806 5807 5808 5809 5810 5811 5811 5811 5812 5812 5814 5815 5816 5817 5817 5817 5818 5818 5819 5819 5820 5821 5821 5821 5821 5822 5822 5821 5821 5820 5820
5766 5765 5769 5775 5778 5781 5777 5780 5781 5783 5786 5788 5790 5792 5793 5799 5799 5800 5801 5802 5803 5805 5806 5807 5808 5808 5809 5810 5811 5811 5812 5813 5813 5813 5814 5814 5815 5816 5816 5817 5818 5818 5818 5818 5818 5817 5817 5817 5815
5759 5761 5764 5769 5771 5771 5770 5773 5773 5778 5780 5781 5784 5785 5788 5791 5794 5795 5797 5798 5799 5800 5802 5803 5803 5804 5805 5806 5806 5807 5808 5809 5810 5810 5810 5810 5811 5811 5812 5813 5814 5814 5814 5813 5813 5812 5812 5811 5811
5753 5755 5761 5759 5762 5764 5765 5766 5766 5769 5772 5776 5778 5779 5781 5785 5788 5789 5791 5792 5794 5796 5798 5799 5799 5799 5800 5801 5802 5803 5804 5805 5806 5807 5807 5807 5806 5806 5807 5808 5808 5808 5808 5808 5808 5807 5807 5806 5806
5745 5749 5751 5752 5755 5757 5760 5760 5759 5763 5765 5768 5769 5771 5776 5779 5781 5783 5784 5786 5787 5789 5792 5793 5794 5794 5795 5796 5797 5798 5799 5800 5802 5803 5802 5802 5802 5801 5802 5803 5803 5804 5803 5803 5802 5802 5802 5801 5800
5737 5741 5742 5746 5749 5751 5751 5754 5756 5753 5758 5760 5763 5766 5769 5771 5773 5775 5778 5779 5780 5783 5784 5786 5787 5788 5789 5790 5791 5793 5795 5796 5797 5797 5797 5797 5796 5796 5796 5797 5798 5797 5797 5797 5797 5797 5796 5795 5794
5729 5733 5737 5739 5741 5744 5744 5747 5745 5750 5755 5753 5754 5759 5762 5764 5767 5768 5770 5772 5774 5776 5777 5779 5780 5782 5783 5785 5786 5787 5789 5791 5792 5792 5792 5792 5792 5791 5791 5792 5792 5792 5791 5792 5791 5791 5790 5789 5788
5722 5726 5729 5732 5734 5737 5738 5740 5742 5746 5746 5746 5748 5752 5754 5756 5759 5761 5764 5766 5767 5768 5769 5771 5774 5775 5777 5778 5780 5781 5782 5784 5786 5786 5786 5787 5786 5786 5786 5786 5786 5786 5786 5785 5785 5784 5783 5782 5781
5715 5718 5721 5724 5727 5730 5731 5736 5737 5739 5741 5741 5742 5743 5746 5750 5753 5756 5758 5759 5760 5762 5763 5764 5766 5768 5770 5772 5773 5774 5776 5778 5779 5779 5780 5780 5780 5780 5780 5780 5781 5780 5780 5779 5779 5778 5777 5775 5774
5708 5711 5713 5717 5720 5722 5725 5729 5731 5733 5734 5735 5735 5736 5738 5742 5745 5748 5750 5753 5754 5755 5757 5757 5759 5761 5763 5764 5766 5767 5770 5771 5772 5772 5773 5773 5773 5773 5774 5774 5774 5774 5774 5772 5772 5771 5770 5769 5767
5701 5704 5706 5709 5712 5714 5718 5721 5724 5725 5727 5728 5729 5730 5731 5733 5737 5740 5742 5745 5746 5748 5749 5750 5752 5754 5756 5758 5759 5761 5762 5765 5766 5766 5766 5766 5766 5766 5767 5767 5767 5767 5766 5765 5765 5764 5763 5762 5760
5694 5698 5701 5703 5704 5707 5709 5713 5715 5717 5720 5721 5722 5722 5722 5723 5726 5729 5732 5736 5739 5741 5743 5744 5745 5749 5749 5751 5753 5754 5756 5758 5760 5759 5760 5760 5760 5760 5760 5760 5760 5759 5759 5759 5758 5757 5756 5754 5752
5689 5692 5694 5696 5696 5699 5701 5706 5707 5710 5713 5713 5713 5714 5715 5715 5717 5719 5722 5726 5728 5732 5734 5735 5736 5739 5742 5743 5746 5747 5748 5752 5752 5753 5754 5754 5754 5753 5752 5753 5752 5752 5751 5751 5750 5749 5747 5745 5743
5683 5685 5687 5689 5690 5692 5692 5697 5697 5700 5702 5704 5705 5706 5706 5706 5707 5709 5711 5714 5717 5720 5725 5728 5729 5730 5734 5736 5737 5738 5742 5745 5745 5746 5746 5746 5746 5745 5745 5745 5744 5744 5743 5742 5741 5740 5738 5737 5734
5678 5679 5680 5681 5682 5684 5686 5684 5691 5691 5692 5694 5694 5693 5693 5693 5695 5698 5700 5702 5705 5709 5711 5717 5720 5722 5724 5726 5729 5731 5735 5736 5738 5740 5740 5739 5740 5739 5738 5738 5737 5736 5735 5734 5732 5730 5729 5727 5724
5673 5674 5674 5673 5672 5673 5675 5668 5685 5680 5681 5678 5675 5675 5676 5677 5680 5684 5689 5692 5694 5696 5698 5704 5708 5711 5714 5718 5720 5723 5725 5727 5730 5731 5732 5732 5733 5732 5731 5729 5728 5728 5726 5725 5723 5721 5719 5716 5713
5666 5666 5665 5663 5662 5663 5658 5653 5675 5664 5661 5656 5655 5653 5654 5657 5662 5667 5672 5677 5682 5685 5688 5692 5696 5700 5704 5708 5711 5714 5717 5720 5722 5722 5723 5724 5724 5724 5722 5721 5720 5719 5718 5716 5714 5712 5709 5706 5703
5658 5658 5655 5653 5651 5652 5644 5639 5655 5651 5638 5635 5633 5631 5630 5635 5643 5649 5654 5659 5667 5673 5676 5681 5686 5691 5695 5698 5701 5705 5708 5712 5712 5714 5716 5715 5716 5716 5714 5713 5712 5710 5708 5706 5704 5702 5699 5696 5693
5650 5649 5647 5641 5638 5638 5631 5632 5635 5632 5632 5624 5618 5614 5613 5614 5620 5629 5637 5643 5650 5658 5663 5669 5674 5679 5684 5689 5693 5695 5700 5702 5703 5706 5707 5707 5707 5708 5706 5705 5703 5701 5699 5697 5695 5692 5689 5686 5682
5644 5641 5638 5635 5632 5625 5623 5621 5619 5614 5609 5607 5599 5597 5599 5600 5605 5609 5619 5627 5634 5642 5649 5655 5662 5668 5674 5679 5682 5687 5691 5693 5695 5696 5697 5699 5699 5698 5698 5696 5694 5692 5690 5688 5685 5682 5679 5675 5671
5634 5634 5632 5627 5618 5613 5611 5605 5598 5594 5589 5587 5585 5579 5579 5584 5592 5598 5601 5610 5621 5629 5636 5642 5650 5656 5662 5668 5672 5678 5682 5684 5685 5687 5688 5690 5690 5689 5688 5687 5685 5683 5681 5678 5675 5672 5668 5664 5660
5628 5626 5622 5616 5610 5605 5598 5600 5590 5584 5576 5573 5570 5567 5568 5570 5576 5583 5587 5594 5607 5617 5624 5631 5638 5646 5652 5659 5664 5668 5673 5676 5677 5679 5681 5682 5682 5681 5680 5679 5677 5675 5672 5669 5665 5661 5657 5652 5647
5620 5619 5613 5606 5605 5595 5589 5585 5579 5572 5564 5556 5559 5556 5557 5558 5562 5569 5574 5580 5593 5604 5613 5621 5629 5637 5644 5650 5655 5659 5664 5667 5669 5671 5673 5673 5673 5673 5672 5671 5669 5666 5663 5659 5654 5650 5646 5641 5636